This is the latest recevied weather packets stored in our database for station/object W7TTE. If no packets are shown the sender has not sent any weather packets the latest 10 day(s).
| Time | Temp. | Humidity | Pressure | Rain* | Wind** | Luminosity | Snow |
|---|---|---|---|---|---|---|---|
| 1777779990 | 27.78° C | 20% | 1011.7 hPa | 0 mm | - | 0 W/m² | - |
| 1777779687 | 27.78° C | 20% | 1011.4 hPa | 0 mm | - | 0 W/m² | - |
| 1777779384 | 28.33° C | 19% | 1011.4 hPa | 0 mm | - | 0 W/m² | - |
| 1777779082 | 28.33° C | 19% | 1011.4 hPa | 0 mm | - | 0 W/m² | - |
| 1777778780 | 28.89° C | 19% | 1011.2 hPa | 0 mm | - | 0 W/m² | - |
| 1777778478 | 28.33° C | 19% | 1011.5 hPa | 0 mm | - | 0 W/m² | - |
| 1777778176 | 28.33° C | 19% | 1011.4 hPa | 0 mm | - | 0 W/m² | - |
| 1777777873 | 28.89° C | 20% | 1011.3 hPa | 0 mm | - | 0 W/m² | - |
| 1777777569 | 28.89° C | 19% | 1011.1 hPa | 0 mm | - | 0 W/m² | - |
| 1777777266 | 28.89° C | 20% | 1011.1 hPa | 0 mm | - | 0 W/m² | - |
| 1777776963 | 29.44° C | 19% | 1011.1 hPa | 0 mm | - | 0 W/m² | - |
| 1777776660 | 29.44° C | 20% | 1011.1 hPa | 0 mm | - | 0 W/m² | - |
| 1777776356 | 29.44° C | 20% | 1011.1 hPa | 0 mm | - | 0 W/m² | - |
| 1777776054 | 30° C | 20% | 1011 hPa | 0 mm | - | 0 W/m² | - |
| 1777775750 | 30° C | 20% | 1010.9 hPa | 0 mm | - | 0 W/m² | - |
| 1777775448 | 30.56° C | 19% | 1011 hPa | 0 mm | - | 0 W/m² | - |
| 1777775144 | 30.56° C | 19% | 1011 hPa | 0 mm | - | 0 W/m² | - |
| 1777774838 | 31.11° C | 19% | 1010.9 hPa | 0 mm | - | 1 W/m² | - |
| 1777774535 | 31.11° C | 19% | 1011.1 hPa | 0 mm | - | 2 W/m² | - |
| 1777774233 | 31.11° C | 19% | 1011 hPa | 0 mm | - | 4 W/m² | - |
| 1777773930 | 31.67° C | 18% | 1010.9 hPa | 0 mm | - | 7 W/m² | - |
| 1777773627 | 31.67° C | 19% | 1010.8 hPa | 0 mm | - | 8 W/m² | - |
| 1777773323 | 31.67° C | 19% | 1010.9 hPa | 0 mm | - | 10 W/m² | - |
| 1777773021 | 31.67° C | 19% | 1011 hPa | 0 mm | - | 15 W/m² | - |
| 1777772415 | 32.22° C | 18% | 1011.1 hPa | 0 mm | - | 23 W/m² | - |
* Rain latest hour (hover to see other rain measurements)
** Current wind speed in m/s (hover to see current wind gust speed)